GFSWCAN_250_rhum_129.txt.gz
RH
99 98 85 99 99 89 100 100 100 100 100 100 100 100 100 100 100 100 100 100 100 100 100 100 100 90 80 99 100 100 100 100 99 98 100 100 98 100 100 100 100 100 89 52 43 50 58 52 46 50 38 37 41 42
98 100 93 68 62 100 88 84 100 100 100 100 100 100 100 100 100 100 100 100 100 100 100 100 100 100 100 100 96 95 100 100 100 98 100 100 100 100 100 95 100 100 99 78 68 53 57 67 54 56 55 50 44 54
84 100 98 75 56 88 100 90 98 100 100 100 100 100 100 99 94 100 85 99 100 100 100 100 100 100 100 100 100 100 100 100 100 100 100 100 100 100 100 100 100 100 100 76 95 83 79 78 94 70 71 61 61 59
87 92 100 100 100 90 100 100 94 98 100 100 100 100 100 100 100 100 88 78 88 100 100 100 100 100 100 100 100 100 100 100 100 100 100 100 100 100 100 100 100 100 98 83 100 100 100 100 95 99 99 94 76 74
72 83 78 65 57 84 100 100 100 100 100 99 93 99 100 100 100 100 100 94 96 77 100 91 92 100 100 99 86 95 100 100 100 100 100 100 100 100 100 100 100 100 96 91 86 79 100 100 100 100 99 91 97 92
96 74 88 66 54 52 54 59 67 99 100 94 68 72 100 100 100 100 100 100 100 100 81 96 96 100 100 100 100 100 100 100 100 100 100 100 100 100 100 100 100 100 100 93 82 66 80 100 100 77 90 96 100 100
99 90 82 80 86 92 80 74 76 70 68 68 79 100 82 86 91 85 97 100 100 100 100 94 99 100 100 98 100 100 100 100 100 100 100 100 100 95 98 100 100 100 78 81 78 74 98 85 88 94 82 95 100 100
65 72 81 75 81 64 96 100 88 80 82 98 100 97 100 100 100 100 100 100 100 100 100 100 100 100 100 100 100 100 100 100 100 100 100 100 100 100 100 100 100 89 78 93 100 97 88 67 79 74 87 97 100 100
46 50 49 57 61 58 71 55 59 78 88 54 75 76 99 100 96 95 100 100 100 100 100 100 100 100 100 100 100 100 100 100 100 100 100 100 100 100 100 100 100 100 98 77 81 90 100 96 81 75 76 76 78 100
85 50 40 73 82 89 68 60 89 90 68 40 36 48 52 68 76 100 91 90 94 82 84 88 100 100 100 100 100 100 100 100 100 100 100 100 100 100 100 100 100 100 100 89 74 82 99 100 100 100 83 80 76 71
25 18 18 20 20 36 40 24 76 85 55 30 18 19 23 32 40 56 68 77 75 78 75 100 100 100 99 97 100 100 95 100 86 89 93 100 100 100 100 100 100 100 100 95 98 98 97 100 100 100 100 96 92 91
15 15 14 13 14 14 14 15 16 14 15 15 14 15 14 18 21 26 32 39 43 42 56 84 100 100 92 75 78 68 74 76 59 74 80 75 100 100 100 100 100 100 100 100 100 100 95 100 100 100 100 100 100 100
12 12 11 11 10 10 11 10 10 10 9 10 11 11 9 11 11 10 14 17 18 19 21 29 42 54 49 42 31 32 33 47 47 51 53 85 100 100 100 100 96 100 100 100 100 100 100 99 100 100 100 100 100 100
12 12 11 11 10 11 11 10 11 10 10 10 9 8 7 8 9 9 9 10 11 12 11 12 19 21 13 14 15 17 17 21 20 22 28 31 41 35 39 34 41 78 99 100 100 100 100 100 100 100 100 100 100 100
8 8 7 7 7 8 8 8 8 7 7 7 7 7 7 8 8 9 10 9 10 10 10 10 11 10 10 11 9 9 10 11 13 13 12 15 15 16 19 25 37 50 70 89 96 85 100 100 90 87 99 100 100 100
8 8 8 8 8 8 7 7 7 6 5 5 5 5 6 6 6 6 6 7 7 8 8 9 9 8 9 9 8 8 8 10 12 11 9 10 11 11 13 16 24 21 20 26 40 51 63 56 35 52 92 100 100 99
8 9 9 8 8 8 8 7 7 6 5 4 5 6 6 6 6 7 7 6 6 6 6 6 6 6 6 6 8 9 10 13 11 10 10 9 9 11 12 12 15 17 16 15 20 29 40 33 25 28 59 95 82 72
10 10 10 9 9 8 8 7 6 6 5 5 5 6 6 6 6 6 6 6 6 6 6 5 5 5 5 6 7 8 9 10 10 10 10 10 11 11 10 9 10 11 10 11 12 13 16 18 19 17 18 40 50 57
11 10 10 9 8 7 7 6 6 5 6 6 7 7 6 7 7 7 7 6 5 5 5 5 5 6 8 8 8 8 8 8 8 8 8 8 8 8 8 9 9 10 11 13 13 13 15 16 16 16 15 18 21 24
10 9 9 8 7 7 6 6 7 7 9 9 8 8 7 9 9 8 7 7 6 5 5 6 8 8 8 8 7 7 7 6 5 5 5 6 7 8 8 8 8 9 11 11 13 14 14 14 14 15 16 17 18 19
8 9 8 7 7 6 6 6 6 7 7 7 8 6 7 8 9 9 8 8 7 7 9 10 9 9 9 8 8 7 6 5 4 5 6 6 6 6 7 8 9 10 10 12 13 13 13 13 13 13 14 16 16 20
7 6 6 5 4 4 4 4 4 5 5 5 5 6 8 8 10 11 11 8 8 11 12 10 9 8 9 9 8 5 5 6 5 5 5 6 7 7 7 7 7 6 7 8 8 10 11 12 12 12 12 13 14 18
5 4 4 4 3 3 4 4 4 5 5 6 6 6 7 9 10 11 8 9 12 13 9 8 9 9 8 7 6 7 7 7 7 6 7 7 7 9 8 7 6 6 6 7 7 8 8 9 9 9 10 12 13 13
4 4 4 4 3 3 4 4 6 6 6 7 8 8 8 9 9 8 8 12 13 10 7 7 7 6 6 7 7 8 8 6 7 8 8 8 8 9 9 10 9 7 7 6 6 6 7 7 8 8 9 11 13 14
4 4 4 5 5 4 5 6 6 6 7 7 7 7 7 6 7 7 11 11 9 8 6 5 5 6 6 7 8 8 9 7 7 8 9 7 8 9 10 11 10 9 8 6 6 6 6 6 6 7 8 10 10 10
4 4 4 4 4 5 5 5 5 5 5 5 5 5 6 7 8 11 9 7 6 5 4 4 4 5 6 6 7 8 9 7 8 9 11 9 9 10 11 10 9 9 8 7 7 7 6 6 6 6 7 7 8 9
4 4 4 4 4 4 4 3 3 4 4 5 5 6 7 9 10 7 6 5 4 4 4 5 6 6 7 8 9 10 10 8 8 9 10 11 10 10 9 10 10 8 7 7 7 6 6 5 5 6 6 6 7 8
3 3 3 3 3 3 3 4 4 4 4 4 4 5 6 7 7 5 5 5 6 6 5 6 6 6 7 7 8 8 8 8 7 8 10 12 10 9 8 8 9 9 8 7 7 6 6 5 5 5 5 5 6 6
3 2 3 3 3 4 4 4 4 4 3 3 4 5 6 6 7 7 6 4 4 5 6 6 5 5 6 6 7 7 7 7 7 8 10 11 10 8 7 8 8 8 8 7 6 6 6 6 5 5 5 4 4 5
3 4 4 4 4 4 4 4 4 5 6 7 9 10 9 6 4 4 4 4 4 4 5 6 6 5 6 7 7 7 8 7 7 8 9 9 7 7 8 8 7 7 7 7 7 7 6 6 5 5 5 4 4 5
4 5 5 5 5 6 7 8 7 6 6 7 7 6 5 4 3 3 3 4 4 4 6 7 7 7 7 7 7 7 8 8 7 8 7 6 6 7 8 8 8 8 8 8 8 8 7 7 6 5 5 5 5 5
5 5 5 5 5 5 4 4 4 4 4 4 3 3 4 5 4 4 4 7 9 6 5 4 5 5 6 6 6 6 6 6 5 5 5 6 7 7 8 9 10 9 8 8 7 7 7 6 6 6 6 6 5 5
3 3 3 4 4 4 4 4 4 4 5 6 7 7 6 5 4 7 10 6 4 4 4 5 5 6 6 6 6 6 6 7 7 7 7 8 8 9 9 8 8 8 7 7 7 7 7 7 6 6 6 6 6 6

GFSWCAN_250_rhum_135.txt.gz
RH
84 74 76 82 71 89 100 100 100 100 100 100 100 100 100 100 100 100 100 100 100 100 100 100 100 100 96 91 87 97 100 100 100 100 88 98 100 100 89 90 100 95 83 100 90 100 100 100 98 68 49 66 67 77
79 90 73 79 75 50 64 99 100 100 100 100 100 100 100 100 100 100 100 100 100 100 100 100 100 100 100 100 100 100 100 100 100 100 100 97 96 100 96 78 80 98 97 90 100 98 68 71 99 86 72 63 70 67
71 80 83 89 78 100 84 63 100 100 100 100 100 100 100 100 100 100 100 100 100 100 100 100 100 100 100 100 100 100 100 100 100 100 100 100 100 100 100 100 84 100 95 100 100 100 100 60 68 51 64 71 69 88
73 74 99 100 100 100 100 95 87 100 88 98 96 100 100 100 100 100 100 100 100 100 100 100 100 100 100 100 100 100 100 100 100 100 100 100 100 97 100 100 100 100 100 98 77 81 66 78 69 81 63 64 68 81
70 74 93 95 91 94 100 100 100 100 100 100 99 99 100 100 100 100 100 100 100 100 100 100 100 100 100 100 100 100 100 100 100 100 92 100 100 100 98 100 100 100 100 100 96 66 60 80 81 74 90 91 92 79
81 65 69 83 91 100 100 100 100 100 100 100 100 100 100 100 100 100 100 100 100 100 100 100 100 100 100 100 100 100 100 100 100 100 95 90 100 100 100 100 100 100 100 84 71 70 81 100 82 88 92 87 95 100
100 88 76 70 72 60 68 84 99 96 100 100 100 100 100 100 100 96 97 75 81 89 98 100 100 100 100 100 100 100 100 100 100 100 100 100 100 97 100 100 100 100 100 90 99 85 93 100 100 100 100 100 100 91
93 98 97 86 88 85 77 67 72 75 92 97 100 99 89 81 71 75 63 56 66 64 67 83 73 84 100 100 100 100 97 92 100 100 100 100 100 100 100 100 100 100 97 89 92 100 100 100 100 100 100 95 98 100
94 93 96 95 91 98 100 100 90 93 94 87 58 59 71 79 69 78 88 81 67 47 46 47 54 65 89 76 64 63 62 66 78 65 69 62 68 92 85 95 100 100 100 100 100 100 99 99 100 100 100 100 100 100
100 100 93 96 87 74 86 88 77 64 50 67 90 94 67 72 66 53 62 73 49 40 37 44 46 44 47 36 47 44 34 32 32 38 48 32 36 63 58 58 64 84 100 100 100 100 99 67 74 80 100 100 95 90
70 76 67 43 50 79 79 83 39 31 44 68 41 53 51 34 30 28 38 28 25 22 24 26 28 29 29 21 24 23 24 25 20 20 29 21 26 39 37 32 43 52 62 73 75 92 80 58 62 58 55 79 91 98
22 25 31 32 40 45 67 53 33 28 27 29 20 20 22 21 20 19 21 20 16 16 18 17 17 19 20 17 18 16 16 17 19 16 17 16 19 19 20 26 35 28 31 44 52 38 34 35 50 57 60 61 65 72
19 22 24 24 26 29 32 27 23 20 23 19 17 14 14 14 15 15 16 12 11 12 12 12 11 11 12 13 11 10 11 13 10 10 10 12 12 11 12 13 16 16 17 17 17 16 18 19 34 61 68 62 70 66
14 16 16 18 19 22 19 17 16 14 13 12 11 12 12 12 11 12 12 11 11 10 10 9 9 9 9 9 9 9 8 8 8 8 10 10 10 10 10 10 10 11 11 12 13 12 12 14 18 36 65 77 80 65
14 15 15 16 17 17 17 17 16 14 13 14 14 13 14 14 12 11 12 12 11 11 11 10 10 10 10 9 10 9 9 9 10 10 10 10 10 9 9 9 9 8 9 10 11 12 12 13 16 23 37 55 66 62
15 15 16 17 16 16 16 15 14 13 11 12 11 13 12 12 11 12 11 11 11 10 10 10 9 8 9 8 8 8 8 8 8 7 7 7 7 7 6 6 7 8 9 10 10 12 13 13 14 15 17 16 15 15
17 20 23 22 22 21 20 18 15 12 11 11 13 12 12 12 11 10 11 12 13 12 10 9 8 8 8 7 8 9 8 8 7 8 8 7 6 5 5 6 6 6 7 7 9 10 10 10 11 12 13 13 13 12
16 19 20 20 19 17 16 13 12 10 9 12 12 13 13 12 12 12 12 12 12 13 12 11 9 8 8 11 11 11 9 8 7 7 6 7 6 5 5 6 6 6 6 7 7 7 7 7 7 9 10 10 10 10
13 14 15 14 13 10 9 9 9 8 10 10 11 12 12 12 12 12 11 12 11 12 10 9 8 9 12 11 10 10 8 8 7 6 6 7 6 6 6 5 5 6 6 6 7 8 7 7 7 7 8 8 8 9
8 9 10 10 10 8 7 7 8 8 9 10 10 12 12 12 13 12 11 11 10 8 8 10 12 13 12 13 11 10 8 7 6 6 5 6 7 7 6 6 6 6 6 6 6 6 6 7 7 7 7 7 7 7
6 6 6 7 6 6 6 6 7 8 8 9 9 10 10 10 10 10 11 10 8 9 10 12 10 10 9 9 9 7 6 6 4 4 6 8 9 7 6 6 6 5 6 6 6 6 6 7 7 7 7 7 7 6
7 6 5 5 5 5 5 6 7 6 6 7 7 7 7 7 8 9 8 7 8 9 9 8 8 8 7 7 7 6 5 5 6 6 7 8 9 8 7 7 7 7 7 7 7 7 8 8 8 8 7 6 6 6
7 6 6 6 6 6 8 8 6 6 5 6 6 6 7 8 10 9 7 8 9 9 7 6 7 7 7 6 6 6 6 6 6 6 7 7 8 10 10 11 11 10 9 8 8 8 8 8 8 7 7 7 7 6
6 7 7 8 9 9 8 6 6 6 6 7 7 7 9 10 8 6 7 8 8 6 6 5 4 5 4 4 4 4 4 4 5 6 7 7 8 10 10 13 12 11 9 9 8 8 8 8 8 8 7 7 7 6
8 9 9 9 8 7 6 7 7 7 7 6 6 6 5 4 4 4 5 8 6 3 3 3 2 3 3 4 4 5 5 6 5 6 6 6 8 9 9 11 12 10 8 8 9 8 8 7 7 8 8 8 7 7
8 8 8 6 5 4 5 5 5 5 5 5 4 4 4 4 4 6 9 7 3 2 2 2 3 3 5 5 6 6 7 6 6 6 8 8 8 8 11 12 11 10 8 8 8 9 8 7 7 7 8 8 8 9
5 5 4 4 4 5 5 5 5 4 4 4 4 4 4 5 5 5 3 2 2 2 3 3 4 4 6 6 7 7 7 6 6 7 7 8 8 8 9 10 9 9 7 7 8 8 8 7 7 7 8 8 8 9
5 5 5 4 5 4 5 5 3 3 4 4 4 4 4 4 4 3 2 2 3 4 4 5 5 6 7 8 8 8 7 6 6 6 6 6 6 6 7 7 7 7 7 7 7 7 8 8 8 8 8 8 8 8
5 4 4 4 4 4 4 3 3 3 3 4 4 3 3 3 3 2 2 3 3 3 4 4 5 6 7 6 6 6 6 5 6 6 6 6 5 5 4 5 7 6 6 6 7 7 8 8 8 8 8 8 8 9
4 4 4 4 4 4 3 4 3 3 3 3 3 2 3 2 2 3 3 4 4 4 5 5 4 5 5 5 5 5 5 5 5 6 6 6 6 6 6 6 7 8 8 7 7 8 8 9 9 8 8 8 8 8
4 4 4 3 3 3 3 3 2 3 3 3 3 3 3 3 3 3 4 4 6 5 4 3 3 4 5 5 6 6 6 6 6 7 7 6 5 5 5 6 8 8 7 7 7 8 8 8 8 8 8 8 8 8
5 5 4 4 4 4 4 4 3 4 4 4 4 4 4 4 5 5 5 4 4 4 5 6 6 6 6 5 5 4 4 5 6 5 5 4 5 5 6 7 7 6 6 6 7 7 7 8 8 8 9 9 9 9
5 5 6 6 6 6 6 6 6 6 6 6 6 6 6 6 6 6 6 6 7 7 6 5 4 4 4 4 4 4 4 5 5 5 5 5 6 6 6 5 5 6 6 6 7 7 8 8 9 9 9 9 9 9

GFSWCAN_250_rhum_138.txt.gz
RH
50 53 76 100 95 97 100 100 100 100 100 100 100 100 100 100 100 100 100 100 100 100 100 100 100 100 100 100 100 100 100 100 100 100 100 100 100 100 100 100 100 87 85 82 79 100 96 83 93 100 81 60 55 59
75 70 62 77 100 82 100 100 100 100 100 100 100 100 100 100 100 100 100 100 100 100 100 100 100 100 100 100 100 100 100 100 100 100 100 100 100 100 100 100 100 100 100 83 96 100 98 63 73 71 86 82 85 93
94 90 100 66 81 63 68 99 100 100 100 100 100 100 100 100 100 100 100 100 100 100 100 100 100 100 100 100 100 100 100 100 100 98 100 100 100 100 100 100 100 100 99 97 85 100 83 84 100 58 56 65 95 79
94 100 92 100 69 72 61 65 82 100 100 100 100 100 100 100 100 100 100 100 100 100 100 100 100 100 100 100 100 100 100 100 100 100 100 100 100 100 100 100 100 100 100 100 98 99 60 86 100 100 100 100 100 100
80 96 100 96 90 78 76 69 57 88 100 100 100 100 100 100 100 100 100 100 100 100 100 100 100 100 100 100 100 100 100 100 100 97 95 100 100 100 100 100 100 100 100 100 90 86 64 89 98 86 88 100 91 100
58 79 84 100 100 100 85 76 76 57 76 100 97 85 100 100 100 100 100 100 100 100 100 100 100 100 100 100 100 100 100 100 100 100 100 86 93 89 89 92 100 100 100 100 90 74 78 98 98 100 99 93 93 59
51 55 71 98 100 100 95 96 90 97 69 76 90 99 89 97 100 97 100 98 100 100 100 100 100 100 100 100 100 100 100 100 100 100 99 98 92 69 67 86 100 100 100 100 100 74 96 100 100 100 96 97 100 92
38 41 46 50 50 55 92 75 68 82 79 64 98 98 81 64 65 90 94 100 100 91 73 79 97 100 100 100 100 85 83 94 100 98 90 86 88 92 51 72 98 100 100 81 77 95 74 93 98 100 100 100 100 100
28 27 32 34 35 40 50 48 34 43 61 75 83 89 100 100 97 74 76 55 62 86 80 71 78 84 87 88 79 80 67 44 47 48 49 47 35 27 41 39 55 66 72 71 70 84 95 58 61 85 100 100 100 97
30 39 32 37 28 31 24 25 25 30 32 42 70 81 76 88 86 99 100 98 94 74 74 80 72 58 73 76 57 52 45 31 19 19 18 19 16 25 24 21 25 38 45 41 47 63 66 55 43 44 51 81 100 88
41 43 29 34 32 20 20 20 21 23 24 26 30 48 74 80 88 92 88 85 79 73 78 75 73 62 78 63 36 22 22 16 11 14 15 13 17 19 19 20 20 20 24 21 23 26 34 40 37 30 35 31 38 51
19 18 17 18 18 17 19 18 21 22 23 24 24 25 39 51 50 49 49 71 90 76 72 46 40 54 55 33 24 17 17 13 12 13 13 14 16 14 13 14 13 13 16 17 15 16 18 18 19 20 22 21 17 20
19 18 17 16 15 15 16 17 17 18 20 26 25 24 24 30 29 25 30 28 30 28 33 51 32 39 31 16 17 14 12 11 9 10 11 11 11 11 11 10 10 10 12 14 12 11 12 13 12 13 15 15 16 14
19 18 17 15 15 15 14 15 15 15 16 16 17 17 17 18 18 20 19 19 20 24 23 21 15 14 13 11 12 11 10 9 9 10 11 11 10 10 10 10 10 10 10 10 10 10 10 10 9 11 11 12 11 12
18 17 17 17 16 15 14 13 13 12 12 12 11 13 15 14 14 14 15 17 17 15 13 12 12 14 13 12 12 11 10 11 10 10 11 10 10 9 9 9 10 9 9 9 9 10 10 10 11 11 11 11 11 12
18 16 17 16 16 16 16 16 15 14 12 13 14 17 17 17 17 17 16 16 15 15 14 14 13 12 11 10 10 11 12 11 12 11 10 9 8 8 7 7 7 7 7 6 6 7 7 8 8 9 10 9 9 10
14 16 18 17 17 18 17 16 16 15 14 14 17 16 15 16 16 16 16 17 17 16 16 15 13 13 11 11 14 16 15 13 11 9 8 8 7 7 7 7 8 7 7 6 7 7 7 7 7 7 7 6 6 7
13 15 14 14 15 16 17 17 17 15 14 16 16 16 16 18 17 17 17 15 15 16 16 15 14 14 14 15 15 14 12 11 10 9 8 7 8 7 8 9 10 9 8 7 7 7 7 7 7 6 7 7 8 8
13 14 14 15 15 14 14 13 12 12 13 14 14 15 15 16 15 15 14 15 14 13 11 12 12 14 14 12 11 10 10 10 10 9 8 8 8 7 7 10 9 9 9 8 7 7 7 7 7 6 6 6 7 6
8 9 10 11 12 12 12 11 11 11 12 13 13 13 11 11 12 12 12 12 11 9 9 10 10 10 9 10 9 9 9 8 7 7 7 7 7 7 9 11 11 10 10 9 8 7 7 7 7 7 7 7 8 7
6 6 7 7 7 6 6 6 7 9 9 10 9 8 8 8 7 8 8 8 7 7 9 9 8 8 7 7 7 7 7 7 7 7 7 7 8 9 10 10 10 9 9 9 9 7 6 8 9 9 8 8 7 7
7 6 6 6 5 5 5 6 7 7 7 7 6 5 5 6 7 7 5 5 6 8 7 6 6 6 6 7 7 6 7 7 7 6 7 7 8 10 10 10 9 9 8 9 9 10 9 9 8 9 8 8 7 6
6 6 6 7 7 7 8 9 7 6 5 5 5 5 6 6 6 4 4 5 5 5 5 5 5 5 4 5 5 6 6 6 8 9 9 8 9 9 10 9 8 8 9 10 9 9 9 9 9 8 8 8 8 7
6 6 6 6 7 8 8 7 6 6 6 6 6 6 7 6 4 4 5 5 6 7 5 5 4 4 4 6 8 10 10 8 8 8 8 7 7 7 6 6 6 7 8 8 8 9 8 8 8 8 8 8 8 8
6 6 7 7 7 7 6 6 5 5 7 7 7 7 6 6 6 7 8 9 6 4 5 5 5 6 7 8 8 7 7 5 4 6 6 4 4 4 5 5 5 5 5 6 7 7 7 7 8 8 8 8 8 8
9 8 8 7 7 7 7 8 8 8 9 8 8 7 7 7 8 9 8 5 5 5 5 4 4 4 5 5 5 6 6 5 5 5 4 3 4 4 5 4 4 4 4 4 6 6 6 6 7 7 7 7 7 8
8 8 9 8 8 8 8 7 7 6 5 4 4 4 5 5 6 5 4 4 4 3 3 3 3 3 4 4 5 6 5 4 3 4 5 4 4 4 4 4 4 4 4 5 5 7 7 6 6 7 7 7 8 9
7 7 7 6 6 6 6 5 4 4 4 4 5 5 4 4 4 3 3 3 3 3 3 3 3 4 4 4 4 4 3 3 4 5 4 4 4 4 5 5 5 4 5 6 6 6 6 6 7 7 8 8 8 9
6 6 5 5 5 5 4 4 4 4 4 4 4 4 3 3 2 3 3 3 4 4 4 4 5 5 5 4 4 3 3 4 5 5 5 5 5 6 6 6 6 6 6 6 7 8 8 8 8 7 7 8 9 10
4 5 5 4 5 4 4 5 5 4 4 4 4 4 3 3 4 4 4 4 4 4 4 4 3 3 4 4 4 4 4 5 6 6 6 6 5 5 5 5 5 6 7 7 6 6 6 8 8 7 7 8 9 10
5 5 5 5 5 5 5 5 4 4 4 4 4 4 4 4 4 4 4 4 4 5 5 6 6 7 6 6 5 5 5 5 5 5 4 4 4 4 4 5 6 7 6 6 6 6 7 6 6 7 8 9 9 9
5 4 4 4 5 5 4 4 4 4 4 4 4 4 4 4 4 4 5 5 4 4 4 4 4 4 3 3 3 3 3 4 5 5 4 4 5 6 6 7 8 7 6 6 6 6 6 7 8 8 8 8 8 8
7 6 6 5 5 5 5 4 4 4 5 5 5 5 4 5 5 4 4 5 5 5 4 4 4 4 3 4 4 4 4 5 5 4 4 4 5 6 5 5 5 6 6 6 6 6 7 7 8 8 8 7 7 8

GFSWCAN_250_rhum_144.txt.gz
RH
100 100 100 100 89 96 100 100 99 86 83 89 100 100 100 96 96 96 94 91 100 91 100 100 100 100 100 100 100 100 100 95 100 100 100 100 100 100 100 100 100 100 100 100 100 100 100 100 90 92 100 100 98 99
100 100 100 100 100 67 70 92 99 83 89 100 100 94 100 100 96 100 93 86 93 95 88 95 100 100 100 100 100 100 100 100 100 100 100 100 100 100 100 100 100 100 100 100 100 100 100 74 90 77 74 79 85 96
94 100 100 100 100 100 100 98 76 60 55 54 82 81 83 100 100 98 100 89 70 65 73 97 100 100 100 100 100 100 100 100 100 100 100 100 100 100 100 100 100 100 100 100 98 96 88 79 94 94 91 98 100 100
73 97 100 76 89 96 100 99 79 48 51 58 57 70 66 68 100 100 100 100 100 95 100 93 74 94 100 100 100 100 100 100 100 100 100 100 100 100 100 100 100 100 100 86 90 100 92 92 88 98 100 100 100 100
81 80 77 63 64 61 61 70 70 63 78 84 76 66 63 58 94 100 100 100 100 95 98 100 88 100 100 100 100 100 100 100 100 100 100 100 100 100 98 98 100 100 90 87 83 96 97 95 94 97 94 98 96 83
95 91 91 99 90 87 88 81 84 93 95 80 53 46 49 61 76 81 90 89 100 100 79 100 100 100 99 100 100 100 100 100 100 100 100 100 100 100 100 100 100 100 98 100 100 99 96 100 90 93 94 95 92 96
88 65 71 64 65 61 85 82 83 56 33 34 34 38 68 71 85 78 69 85 88 88 98 95 100 100 100 100 100 100 100 100 89 87 100 96 100 100 100 100 100 100 96 99 100 100 96 96 95 93 89 67 72 96
62 71 55 60 89 78 52 55 43 31 38 40 32 28 50 57 57 87 70 67 83 73 69 78 84 100 100 100 100 99 96 94 99 100 100 100 97 100 100 100 100 100 87 85 83 73 57 58 71 62 53 60 64 50
31 32 34 44 48 42 55 45 47 61 42 38 25 28 33 39 33 44 52 62 57 64 58 46 51 92 86 97 96 84 82 83 84 95 86 80 88 90 93 80 76 70 62 57 61 57 54 47 45 42 38 31 22 17
26 26 25 25 32 27 26 30 38 35 20 18 19 22 23 28 27 34 40 27 39 58 49 54 35 30 42 60 73 71 80 96 79 80 71 80 94 100 87 48 55 50 39 34 30 28 23 23 24 19 15 14 14 14
15 15 15 15 16 16 16 20 35 20 17 18 17 18 17 17 16 17 20 21 26 32 32 32 22 21 26 35 41 39 36 34 46 67 72 71 69 62 48 34 33 28 25 22 22 22 19 18 20 17 13 12 11 11
14 14 14 14 14 16 17 17 16 16 17 17 20 20 18 22 19 19 19 21 20 16 18 20 20 20 19 21 24 22 21 21 24 43 56 59 60 46 29 22 18 18 20 20 18 18 18 14 13 13 12 11 11 10
14 13 13 13 14 14 13 13 13 13 14 16 19 19 20 22 21 21 22 21 22 21 20 19 18 19 17 18 18 18 18 18 20 28 38 38 30 22 15 16 17 16 16 16 15 14 15 13 12 13 14 13 12 11
13 13 13 12 12 12 11 12 12 12 13 15 17 19 21 21 21 20 21 21 21 22 22 22 21 20 21 20 18 17 16 15 15 16 16 15 14 14 13 13 13 13 12 12 12 12 15 16 17 16 15 15 13 11
12 12 12 12 11 10 10 10 11 11 11 12 14 16 18 19 20 21 22 22 22 22 22 21 20 20 20 18 16 15 13 14 15 15 14 13 14 12 11 12 11 10 11 12 14 15 16 17 18 17 14 14 13 13
10 10 11 11 10 10 10 9 10 10 10 10 12 16 18 19 20 21 21 23 24 23 22 20 19 18 16 15 15 15 15 17 17 14 14 14 14 14 14 13 13 12 13 14 15 15 16 17 18 17 16 15 14 13
10 12 11 10 10 10 9 9 9 8 9 10 13 15 16 18 20 22 25 25 21 19 19 18 16 14 13 14 18 17 18 17 16 16 15 15 14 13 14 14 16 16 16 17 16 16 14 14 15 16 16 14 12 11
12 12 11 10 10 10 9 9 8 8 9 11 12 13 16 19 22 23 23 22 20 17 14 12 11 10 12 14 17 18 16 15 15 16 17 16 15 14 14 13 14 15 14 13 12 12 11 11 12 12 13 11 10 10
10 10 10 10 10 9 9 9 8 8 10 10 12 15 17 18 18 19 19 20 17 13 9 8 7 10 12 11 11 12 13 14 14 13 11 11 11 11 12 12 13 13 12 11 11 10 9 9 9 8 8 9 9 9
10 10 11 10 9 9 8 9 9 9 11 12 14 16 14 14 14 14 15 15 12 8 6 8 9 10 10 11 12 11 11 12 11 11 12 14 11 9 9 9 9 8 8 8 7 7 6 6 7 7 7 7 9 9
10 11 9 10 9 8 8 8 8 8 9 9 9 8 9 8 9 8 8 6 6 8 9 10 10 8 7 7 8 8 8 8 8 8 7 7 7 6 6 6 5 5 5 5 5 5 5 6 6 5 6 6 7 8
12 9 9 9 8 8 8 9 8 7 6 6 6 6 6 6 6 5 4 6 7 8 8 6 5 6 6 6 6 5 6 5 4 4 4 4 5 5 5 4 4 4 4 4 4 5 6 6 6 6 6 6 7 7
10 9 8 9 9 9 9 7 6 6 5 6 7 7 8 8 8 8 7 9 9 6 4 4 4 5 6 6 5 5 5 4 3 4 5 4 4 5 5 4 4 4 4 5 5 6 6 6 6 6 7 7 7 7
10 10 11 11 11 8 6 6 6 5 6 6 6 7 7 7 6 7 7 6 6 6 5 5 5 6 6 7 6 6 5 3 4 6 5 5 5 6 5 6 6 6 6 6 5 6 7 7 7 7 7 7 7 7
11 12 12 11 8 7 7 7 6 7 8 7 7 5 5 5 6 7 6 5 5 5 5 5 6 6 7 7 6 6 4 4 5 7 7 7 7 7 6 6 6 6 5 6 6 6 5 5 4 5 5 5 5 5
12 11 11 9 9 9 9 8 6 6 5 5 5 6 7 8 9 7 5 5 5 6 6 6 6 6 7 6 6 7 6 6 6 7 6 5 4 5 4 4 3 3 2 4 4 4 4 4 4 4 4 4 4 4
13 12 11 11 10 9 9 8 8 9 9 9 9 11 11 10 8 6 6 6 6 6 6 6 6 5 5 4 4 4 4 3 3 3 3 3 3 3 3 3 3 3 4 5 5 5 4 4 5 5 4 4 4 5
13 12 11 10 8 7 7 8 8 8 8 8 8 8 8 7 5 5 5 4 4 4 4 3 3 4 4 3 3 3 3 3 3 3 4 4 3 3 4 4 5 5 5 5 4 5 4 4 4 4 4 4 5 6
10 8 7 7 7 8 8 7 7 6 6 6 5 5 5 4 4 5 4 4 4 4 4 4 3 3 3 3 3 2 2 3 3 3 3 3 3 2 3 3 3 4 4 4 4 4 5 4 5 6 7 6 6 6
6 6 7 7 6 7 7 6 5 5 5 5 5 4 4 4 5 5 4 4 4 4 4 3 3 3 3 3 3 3 3 3 3 3 3 3 3 4 4 4 4 4 5 6 6 7 6 6 6 6 6 7 7 7
6 6 6 6 6 6 6 6 5 5 5 5 5 5 5 4 4 3 4 4 3 3 3 3 3 3 4 4 4 4 5 4 4 4 4 4 5 5 5 5 6 6 6 6 6 6 6 6 6 6 7 7 7 7
6 6 6 6 6 5 6 6 6 5 5 5 4 4 4 4 4 4 4 4 4 4 4 5 5 5 5 5 5 5 5 4 4 4 4 4 4 5 5 5 5 6 5 6 6 7 7 7 7 7 7 7 8 8
6 6 6 6 6 6 6 5 5 5 5 5 6 6 6 6 5 5 6 6 6 6 7 6 6 6 6 6 6 5 5 4 4 4 4 4 5 5 6 5 5 6 6 6 6 6 6 6 7 7 7 8 8 8